This demonstration page uses our WeatherBlox Daily Observations layout. Learn more.

Left ArrowRight Arrow

Hourly Observations for November 20, 2018

Temp ( °F °C ) Dew Point ( °F °C ) Humidity (%) Winds ( mph kmh ) Pressure ( in mb ) Visibility ( mi km ) Precip ( " mm )
12:27 am 00:27 Cloudy 39 3.9 35 1.7 86 86 NW 9 15 30.09 1019 9 14 0.00 0.00
12:53 am 00:53 Cloudy 39 3.9 35 1.7 86 86 NW 9 15 30.09 1019 9 14 0.00 0.00
1:23 am 01:23 Cloudy 39 3.9 34 1.1 82 82 WNW 13 20 30.09 1019 10 16 0.00 0.00
1:53 am 01:53 Cloudy 38 3.3 33 0.6 83 83 NW 12 19 30.10 1019 10 16 0.00 0.00
2:24 am 02:24 Cloudy 38 3.3 33 0.6 83 83 NW 8 13 30.09 1019 10 16 0.00 0.00
2:53 am 02:53 Cloudy 38 3.3 33 0.6 83 83 NW 8 13 30.10 1019 10 16 0.00 0.00
3:53 am 03:53 Cloudy 38 3.3 34 1.1 86 86 WNW 3 6 30.11 1020 10 16 0.00 0.00
4:53 am 04:53 Cloudy 38 3.3 34 1.1 86 86 W 6 9 30.11 1020 9 14 0.00 0.00
5:53 am 05:53 Cloudy 38 3.3 34 1.1 86 86 W 6 9 30.12 1020 9 14 0.00 0.00
6:35 am 06:35 Cloudy 38 3.3 34 1.1 86 86 WSW 6 9 30.12 1020 9 14 0.00 0.00
6:53 am 06:53 Cloudy with Mist and Fog 37 2.8 34 1.1 89 89 WSW 9 15 30.14 1021 6 10 0.00 0.00
7:02 am 07:02 Cloudy with Mist and Fog 37 2.8 34 1.1 89 89 W 7 11 30.12 1020 4 6 0.00 0.00
7:16 am 07:16 Cloudy with Mist and Fog 37 2.8 34 1.1 89 89 W 7 11 30.15 1021 5 8 0.00 0.00
7:25 am 07:25 Cloudy with Mist and Fog 37 2.8 34 1.1 89 89 W 5 7 30.15 1021 6 10 0.00 0.00
7:53 am 07:53 Cloudy with Mist and Fog 37 2.8 34 1.1 89 89 W 6 9 30.16 1021 3 5 0.00 0.00
8:01 am 08:01 Cloudy with Mist and Fog 37 2.8 34 1.1 89 89 W 5 7 30.15 1021 3 4 0.00 0.00
8:12 am 08:12 Cloudy with Mist and Fog 37 2.8 35 1.7 93 93 W 6 9 30.15 1021 2 3 0.00 0.00
8:34 am 08:34 Cloudy with Mist and Fog 37 2.8 35 1.7 93 93 WSW 5 7 30.15 1021 3 4 0.00 0.00
8:45 am 08:45 Cloudy with Mist and Fog 37 2.8 35 1.7 93 93 WSW 3 6 30.15 1021 3 5 0.00 0.00
8:53 am 08:53 Cloudy with Light Rain 37 2.8 35 1.7 93 93 W 6 9 30.18 1022 3 4 0.01 0.25
9:12 am 09:12 Cloudy with Light Rain 37 2.8 35 1.7 93 93 W 6 9 30.18 1022 4 6 0.00 0.03
9:27 am 09:27 Cloudy with Mist and Fog 37 2.8 35 1.7 93 93 W 6 9 30.18 1022 6 10 0.00 0.03
9:40 am 09:40 Cloudy with Light Rain 37 2.8 34 1.1 89 89 WNW 14 22 30.18 1022 5 8 0.01 0.25
9:53 am 09:53 Cloudy 37 2.8 34 1.1 89 89 NW 10 17 30.20 1023 9 14 0.01 0.25
10:08 am 10:08 Cloudy 38 3.3 34 1.1 86 86 NW 10 17 30.21 1023 9 14 0.00 0.00
10:53 am 10:53 Cloudy 38 3.3 33 0.6 83 83 WNW 9 15 30.23 1024 10 16 0.00 0.00
11:53 am 11:53 Cloudy 39 3.9 33 0.6 79 79 WNW 9 15 30.23 1024 8 13 0.00 0.00
12:22 pm 12:22 Cloudy 39 3.9 32 0 76 76 WNW 12 19 30.21 1023 7 11 0.00 0.00
12:32 pm 12:32 Cloudy 39 3.9 32 0 76 76 WNW 9 15 30.21 1023 7 11 0.00 0.00
12:53 pm 12:53 Cloudy 39 3.9 32 0 76 76 WNW 10 17 30.23 1024 7 11 0.00 0.00
1:53 pm 13:53 Cloudy 39 3.9 31 -0.6 73 73 WNW 8 13 30.23 1024 8 13 0.00 0.00
2:53 pm 14:53 Cloudy 38 3.3 31 -0.6 76 76 W 8 13 30.23 1024 8 13 0.00 0.00
3:36 pm 15:36 Cloudy 37 2.8 31 -0.6 79 79 W 6 9 30.24 1024 8 13 0.00 0.00
3:53 pm 15:53 Cloudy 37 2.8 31 -0.6 79 79 W 9 15 30.24 1024 7 11 0.00 0.00
4:00 pm 16:00 Cloudy 37 2.8 31 -0.6 79 79 WSW 9 15 30.27 1025 7 11 0.00 0.00
4:53 pm 16:53 Cloudy 37 2.8 31 -0.6 79 79 WSW 7 11 30.24 1024 7 11 0.00 0.00
5:53 pm 17:53 Cloudy 37 2.8 30 -1.1 76 76 W 6 9 30.25 1025 8 13 0.00 0.00
6:53 pm 18:53 Cloudy 36 2.2 28 -2.2 73 73 W 9 15 30.27 1025 10 16 0.00 0.00
7:53 pm 19:53 Mostly Cloudy 35 1.7 27 -2.8 72 72 WSW 5 7 30.27 1025 10 16 0.00 0.00
8:53 pm 20:53 Cloudy 35 1.7 28 -2.2 76 76 Calm 30.26 1025 10 16 0.00 0.00
9:03 pm 21:03 Cloudy 35 1.7 28 -2.2 76 76 SW 5 7 30.27 1025 10 16 0.00 0.00
9:26 pm 21:26 Mostly Cloudy 35 1.7 27 -2.8 72 72 WSW 7 11 30.27 1025 10 16 0.00 0.00
9:53 pm 21:53 Mostly Cloudy 34 1.1 27 -2.8 76 76 WSW 5 7 30.26 1025 10 16 0.00 0.00
10:53 pm 22:53 Mostly Clear 30 -1.1 26 -3.3 85 85 Calm 30.26 1025 9 14 0.00 0.00
11:53 pm 23:53 Mostly Cloudy 32 0 27 -2.8 82 82 WSW 3 6 30.26 1025 9 14 0.00 0.00

Powered by AerisWeather